ORANGE GROVE, NALF, TX

3:58 PM CDT on August 22, 2017 (GMT -0500)
Orange Grove Naval Air Landing Field

Weather History for KNOG - December, 2013

Change the Weather History Date:

Thursday, December 12, 2013

  Actual Average (KALI) Record (KALI)
Temperature  
Mean Temperature 60 °F -  
Max Temperature 73 °F 68 °F 86 °F (1996)
Min Temperature 48 °F 45 °F 32 °F (2000)
Degree Days  
Heating Degree Days 4    
Growing Degree Days 10 (Base 50)    
Moisture  
Dew Point 35 °F    
Average Humidity 44    
Maximum Humidity 59    
Minimum Humidity 23    
Precipitation  
Precipitation 0.00 in - - ()
Sea Level Pressure  
Sea Level Pressure 30.42 in    
Wind  
Wind Speed 8 mph (NNE)    
Max Wind Speed 14 mph    
Max Gust Speed -    
Visibility 10 miles    
Events      
Averages and records for this station are not official NWS values.
T = Trace of Precipitation, MM = Missing Value Source: NWS Daily Summary

Daily Weather History Graph

Daily Weather History Graph

Search for Another Location

Airport or City:

Trip Planner

Search our weather history database for the weather conditions in past years. The results will help you decide how hot, cold, wet, or windy it might be!

Date:

Astronomy

Dec. 12, 2013 Rise Set
Actual Time 7:14 AM CST 5:38 PM CST
Civil Twilight 6:48 AM CST 6:03 PM CST
Nautical Twilight 6:19 AM CST 6:33 PM CST
Astronomical Twilight 5:50 AM CST 7:01 PM CST
Moon 2:30 PM CST (12/12) 2:55 AM CST (12/12)
Length of Visible Light 11h 15m
Length of Day
10h 24m
Waxing Gibbous, 80% of the Moon is Illuminated
Dec 12
Waxing Gibbous
Dec 17
Full
Dec 25
Last Quarter
Jan 1
New
Jan 7
First Quarter

Hourly Weather History & Observations

Time (CST) Temp. Dew Point Humidity Pressure Visibility Wind Dir Wind Speed Gust Speed Precip Events Conditions
12:56 AM 55.9 °F 35.1 °F 45% 30.45 in 10.0 mi NE 6.9 mph - N/A   Overcast
1:56 AM 55.9 °F 34.0 °F 44% 30.45 in 10.0 mi NNE 10.4 mph - N/A   Overcast
2:56 AM 55.0 °F 35.1 °F 47% 30.45 in 10.0 mi NNE 10.4 mph - N/A   Overcast
3:56 AM 54.0 °F 35.1 °F 49% 30.45 in 10.0 mi NNE 13.8 mph - N/A   Overcast
4:56 AM 51.1 °F 34.0 °F 52% 30.45 in 10.0 mi NNE 9.2 mph - N/A   Overcast
5:56 AM 51.1 °F 34.0 °F 52% 30.46 in 10.0 mi NNE 12.7 mph - N/A   Overcast
6:56 AM 48.9 °F 34.0 °F 56% 30.49 in 10.0 mi NNE 10.4 mph - N/A   Overcast
7:56 AM 48.0 °F 34.0 °F 58% 30.50 in 10.0 mi NNE 13.8 mph - N/A   Overcast
8:56 AM 50.0 °F 35.1 °F 57% 30.51 in 10.0 mi NNE 11.5 mph - N/A   Overcast
9:56 AM 53.1 °F 35.1 °F 50% 30.53 in 10.0 mi NNE 10.4 mph - N/A   Overcast
10:56 AM 57.9 °F 35.1 °F 42% 30.53 in 10.0 mi North 6.9 mph - N/A   Overcast
11:56 AM 61.0 °F 35.1 °F 38% 30.49 in 10.0 mi North 5.8 mph - N/A   Overcast
12:56 PM 59.0 °F 34.0 °F 39% 30.44 in 10.0 mi North 6.9 mph - N/A   Overcast
1:56 PM 60.1 °F 34.0 °F 38% 30.40 in 10.0 mi NNE 4.6 mph - N/A   Overcast
2:56 PM 73.0 °F 33.1 °F 23% 30.37 in 10.0 mi North 4.6 mph - N/A   Overcast
3:56 PM 60.1 °F 34.0 °F 38% 30.36 in 10.0 mi NNE 8.1 mph - N/A   Overcast
4:56 PM 59.0 °F 35.1 °F 41% 30.37 in 10.0 mi NNE 5.8 mph - N/A   Overcast
5:56 PM 63.0 °F 35.1 °F 35% 30.36 in 10.0 mi NW 3.5 mph - N/A   Mostly Cloudy
6:56 PM 66.9 °F 36.0 °F 32% 30.36 in 10.0 mi WNW 3.5 mph - N/A   Overcast
7:56 PM 63.0 °F 37.0 °F 38% 30.36 in 10.0 mi NW 3.5 mph - N/A   Overcast
8:56 PM 57.9 °F 37.0 °F 46% 30.35 in 10.0 mi Calm Calm - N/A   Overcast
9:56 PM 60.1 °F 39.0 °F 46% 30.33 in 10.0 mi East 8.1 mph - N/A   Mostly Cloudy
10:56 PM 70.0 °F 39.0 °F 32% 30.32 in 10.0 mi ESE 4.6 mph - N/A   Partly Cloudy
11:56 PM 53.1 °F 39.0 °F 59% 30.31 in 10.0 mi Calm Calm - N/A   Clear